Tracking 21605 objects as of 26-Oct-2020
HD Live streaming from Space Station
objects crossing your sky now

COSMOS 2253

Track COSMOS 2253 now!
10-day predictions
COSMOS 2253 is classified as:


NORAD ID: 22688
Int'l Code: 1993-038B
Perigee: 1,414.9 km
Apogee: 1,432.7 km
Inclination: 82.6 °
Period: 114.1 minutes
Semi major axis: 7794 km
RCS: 1.0582 m2 (large)
Launch date: June 24, 1993
Source: Commonwealth of Independent States (former USSR) (CIS)
Launch site: PLESETSK MISSILE AND SPACE COMPLEX (PKMTR)
aabbcc
Your satellite tracking list
Your tracking list is empty




NASA's NSSDC Master Catalog

Two Line Element Set (TLE):
1 22688U 93038B   20300.46178240 +.00000034 +00000-0 +13221-3 0  9995
2 22688 082.5826 128.2940 0011414 354.7066 005.3902 12.61530078258789
Source of the keplerian elements: AFSPC